[[{"header":{"parameterUnit":"m.s-1","parameterCategory":2,"la1":30.2991,"la2":30.254,"lo1":-89.0895,"lo2":-89.0444,"dy":0.0017,"dx":0.0017,"nx":28,"ny":28,"refTime":"2024-05-29T03:00:00:Z","depth":"0","parameterNumber":2,"parameterNumberName":"U-component_of_CURRENTS"},"data":[0,0,0,0,0,0,0,0,0,0,0,0,0,0,0,0,0,0,0,0,0,0,0,0,0,0,0,0,0,0,0,0,0,0,0,0,0,0,0,0,0,0,0,0,0,0,0,0,0,0,0,0,0,0,0,0,0,0,-0.2496,-0.2498,0,-0.2623,-0.2623,-0.2624,-0.2608,-0.2607,-0.2606,-0.2605,-0.2628,-0.263,-0.2631,0,0,0,0,0,0,0,0,0,0,0,0,0,-0.2244,-0.2248,-0.2495,-0.2498,-0.2501,-0.2623,-0.2623,-0.2624,-0.2608,-0.2607,-0.2606,-0.2605,-0.2628,-0.263,-0.2631,0,0,0,0,0,0,0,0,0,0,0,0,0,-0.2348,-0.2249,-0.2495,-0.2517,-0.2521,-0.2623,-0.2623,-0.2624,-0.2608,-0.2607,-0.2605,-0.2604,-0.2627,-0.2629,-0.2632,-0.2672,0,0,-0.2638,-0.2639,0,0,0,0,0,0,0,0,-0.2342,-0.2356,-0.2511,-0.2516,-0.2521,-0.2609,-0.2544,-0.2639,-0.2609,-0.2562,-0.2605,-0.2604,-0.2622,-0.2624,-0.2634,-0.2673,-0.2674,-0.2638,-0.264,-0.2641,-0.2641,0,0,0,0,0,0,0,-0.2335,-0.2351,-0.2533,-0.2515,-0.2521,-0.2524,-0.2535,-0.2562,-0.2586,-0.2566,-0.2568,-0.2603,-0.2622,-0.2632,-0.2635,-0.2674,-0.2638,-0.264,-0.2642,-0.2643,-0.2722,-0.2722,0,0,0,0,0,0,-0.2348,-0.2344,-0.2529,-0.2538,-0.2441,-0.253,-0.2543,-0.2572,-0.2588,-0.2594,-0.2604,-0.2602,-0.2629,-0.2632,-0.2636,-0.269,-0.2641,-0.2643,-0.2644,-0.2721,-0.2722,-0.2723,0,0,0,0,0,0,-0.2341,-0.2362,-0.2524,-0.2454,-0.2476,-0.2537,-0.2569,-0.2575,-0.2592,-0.2621,-0.2621,-0.2617,-0.2628,-0.2633,-0.2665,-0.269,-0.2644,-0.2646,-0.272,-0.2721,-0.2722,-0.2794,0,0,0,0,0,0,-0.2333,-0.2359,-0.2373,-0.2455,-0.2482,-0.2591,-0.2572,-0.2579,-0.2622,-0.262,-0.2632,-0.2632,-0.2628,-0.2662,-0.2667,-0.2692,-0.2647,-0.2719,-0.2721,-0.2722,-0.2791,-0.2798,-0.2803,0,0,0,0,0,-0.2324,-0.2371,-0.2372,-0.2395,-0.2502,-0.2594,-0.2606,-0.2636,-0.2624,-0.264,-0.2646,-0.2632,-0.2674,-0.2665,-0.2671,-0.2697,-0.2718,-0.272,-0.2722,-0.2788,-0.2796,-0.2803,0,0,0,0,0,0,-0.2279,-0.2378,-0.238,-0.2454,-0.2517,-0.2596,-0.2635,-0.2645,-0.2664,-0.2659,-0.2656,-0.2659,-0.2693,-0.2686,-0.2676,-0.272,-0.2689,-0.2692,-0.2737,-0.2745,-0.2751,-0.2767,-0.2649,0,0,0,0,0,-0.2276,-0.2324,-0.2415,-0.2469,-0.2511,-0.2566,-0.2604,-0.2625,-0.2667,-0.2674,-0.2681,-0.2687,-0.2707,-0.2718,-0.273,-0.2767,-0.2753,-0.2781,-0.2787,-0.2793,-0.2808,-0.2785,-0.2791,-0.2729,-0.2729,-0.2729,0,0,-0.2273,-0.2337,-0.2361,-0.2461,-0.2514,-0.259,-0.2583,-0.2658,-0.2699,-0.2675,-0.2719,-0.2717,-0.2722,-0.2758,-0.2771,-0.2754,-0.2809,-0.2795,-0.28,-0.2813,-0.2787,-0.2793,-0.2799,-0.273,-0.273,-0.2729,0,0,-0.2319,-0.2353,-0.2417,-0.2479,-0.2576,-0.2612,-0.2636,-0.2712,-0.2722,-0.2767,-0.2759,-0.2773,-0.2798,-0.2811,-0.282,-0.2871,-0.2844,-0.2867,-0.2917,-0.2894,-0.2899,-0.2903,-0.2919,-0.2924,-0.2868,-0.2868,-0.2869,0,-0.2307,-0.2406,-0.2448,-0.2538,-0.2597,-0.2626,-0.2707,-0.2735,-0.2798,-0.2815,-0.2784,-0.2829,-0.2825,-0.2885,-0.2894,-0.2888,-0.2878,-0.289,-0.2903,-0.2906,-0.2909,-0.2924,-0.2929,-0.2872,-0.2872,-0.2871,-0.2871,0,-0.2404,-0.2488,-0.2544,-0.2649,-0.2703,-0.2785,-0.2841,-0.2868,-0.2868,-0.2891,-0.293,-0.2922,-0.2941,-0.2943,-0.2936,-0.297,-0.296,-0.2914,-0.2885,-0.292,-0.2934,-0.2937,-0.2877,-0.2876,-0.2875,-0.2874,0,0,-0.2364,-0.2569,-0.2585,-0.2646,-0.2769,-0.2815,-0.2893,-0.2965,-0.2988,-0.3015,-0.3043,-0.3077,-0.3054,-0.3062,-0.305,-0.3038,-0.3052,-0.2989,-0.2986,-0.3011,-0.3029,-0.2955,-0.2952,-0.2999,-0.3,-0.3,-0.304,0,-0.2424,-0.26,-0.2683,-0.2808,-0.2896,-0.2946,-0.3002,-0.3054,-0.3067,-0.3089,-0.3097,-0.311,-0.3106,-0.3091,-0.3092,-0.305,-0.306,-0.3047,-0.2988,-0.2987,-0.292,-0.2952,-0.2751,-0.2762,-0.3043,-0.3043,-0.3043,0,-0.2475,-0.2594,-0.274,-0.2881,-0.2918,-0.2973,-0.3033,-0.3086,-0.3139,-0.3147,-0.3182,-0.3172,-0.3201,-0.3143,-0.3147,-0.3136,-0.31,-0.3069,-0.3068,-0.2975,-0.2918,-0.2766,-0.2757,-0.2742,-0.3048,-0.3048,-0.3047,0,-0.2395,-0.2611,-0.2716,-0.2773,-0.2938,-0.2973,-0.3026,-0.3092,-0.3096,-0.3165,-0.3143,-0.3218,-0.3169,-0.3184,-0.3149,-0.3133,-0.3123,-0.3081,-0.3007,-0.3003,-0.2809,-0.2787,-0.2777,-0.3078,-0.3078,-0.3078,-0.3077,0,-0.2412,-0.2485,-0.2681,-0.2734,-0.2786,-0.2922,-0.294,-0.3003,-0.306,-0.3037,-0.3141,-0.3098,-0.3157,-0.3156,-0.3168,-0.3111,-0.3144,-0.3033,-0.3002,-0.2831,-0.2811,-0.2769,-0.2799,-0.3079,-0.3079,-0.3078,-0.3078,0,-0.2282,-0.2444,-0.2531,-0.271,-0.2747,-0.2753,-0.2834,-0.2837,-0.2932,-0.2896,-0.2904,-0.2973,-0.297,-0.3062,-0.3058,-0.307,-0.3002,-0.3041,-0.2868,-0.2814,-0.2704,-0.2745,-0.2698,-0.2629,-0.2959,-0.2957,-0.2956,0,-0.2236,-0.2286,-0.2428,-0.2441,-0.2508,-0.2558,-0.2572,-0.2716,-0.2713,-0.2781,-0.2729,-0.2763,-0.2742,-0.2799,-0.281,-0.2872,-0.289,-0.2758,-0.2682,-0.2687,-0.2711,-0.2721,-0.2668,-0.2473,-0.2468,-0.2464,-0.246,0,-0.2101,-0.2134,-0.2193,-0.2232,-0.2255,-0.228,-0.2328,-0.2322,-0.2459,-0.2464,-0.2464,-0.2478,-0.2494,-0.2456,-0.2561,-0.2563,-0.2656,-0.2668,-0.2687,-0.2354,-0.2346,-0.2265,-0.2511,-0.2422,-0.2426,-0.2429,-0.2431,-0.2432,-0.1933,-0.1912,-0.1985,-0.199,-0.2015,-0.2015,-0.1978,-0.2049,-0.2051,-0.2068,-0.2165,-0.2166,-0.221,-0.2271,-0.2299,-0.2249,-0.2318,-0.2207,-0.2271,-0.2295,-0.2174,-0.237,-0.2231,-0.2233,-0.2235,-0.2237,-0.2239,0,-0.1752,-0.176,-0.175,-0.1771,-0.1721,-0.1809,-0.1814,-0.1772,-0.1738,-0.1809,-0.1825,-0.1896,-0.1862,-0.1954,-0.1939,-0.1901,-0.1849,-0.1901,-0.1856,-0.183,-0.1987,-0.1909,-0.1672,-0.1672,-0.1672,-0.1672,-0.1672,-0.1672,-0.1662,-0.1604,-0.1616,-0.1503,-0.1498,-0.1408,-0.1385,-0.1357,-0.1388,-0.1408,-0.1482,-0.1604,-0.1703,-0.187,-0.1819,-0.1745,-0.1739,-0.1645,-0.1767,-0.1871,-0.1904,-0.1936,-0.1868,-0.1626,-0.1626,-0.146,-0.1459,-0.1459]},{"header":{"parameterUnit":"m.s-1","parameterCategory":2,"la1":30.2991,"la2":30.254,"lo1":-89.0895,"lo2":-89.0444,"dy":0.0017,"dx":0.0017,"nx":28,"ny":28,"refTime":"2024-05-29T03:00:00:Z","depth":"0","parameterNumber":3,"parameterNumberName":"V-component_of_CURRENTS"},"data":[0,0,0,0,0,0,0,0,0,0,0,0,0,0,0,0,0,0,0,0,0,0,0,0,0,0,0,0,0,0,0,0,0,0,0,0,0,0,0,0,0,0,0,0,0,0,0,0,0,0,0,0,0,0,0,0,0,0,-0.0211,-0.0211,0,-0.0149,-0.0148,-0.0147,-0.0096,-0.0097,-0.0097,-0.0097,0.002,0.0023,0.0026,0,0,0,0,0,0,0,0,0,0,0,0,0,-0.0146,-0.0147,-0.0211,-0.0211,-0.0211,-0.015,-0.0148,-0.0146,-0.0096,-0.0097,-0.0097,-0.0097,0.0019,0.0023,0.0027,0,0,0,0,0,0,0,0,0,0,0,0,0,-0.0131,-0.0148,-0.0211,-0.0184,-0.0182,-0.015,-0.0148,-0.0146,-0.0096,-0.0097,-0.0097,-0.0097,0.0018,0.0022,0.0027,0.0064,0,0,0.0042,0.0045,0,0,0,0,0,0,0,0,-0.0132,-0.0132,-0.0188,-0.0186,-0.0184,-0.0138,-0.0082,-0.0076,-0.0096,-0.012,-0.0097,-0.0097,-0.0033,-0.0024,-0.0001,0.007,0.0075,0.0043,0.0046,0.0048,0.0049,0,0,0,0,0,0,0,-0.0133,-0.0134,-0.0178,-0.0189,-0.0186,-0.0128,-0.0127,-0.008,-0.0068,-0.0118,-0.0116,-0.0122,-0.003,-0.0006,0.0002,0.0076,0.0043,0.0047,0.005,0.0052,0.0214,0.0215,0,0,0,0,0,0,-0.0164,-0.0136,-0.0181,-0.0177,-0.0167,-0.0131,-0.0128,-0.0146,-0.007,-0.0061,-0.0122,-0.012,-0.0014,-0.0003,0.0007,0.006,0.0048,0.0053,0.0055,0.0212,0.0214,0.0215,0,0,0,0,0,0,-0.0163,-0.0169,-0.0183,-0.016,-0.0159,-0.0133,-0.0152,-0.0145,-0.0124,-0.0075,-0.0064,-0.0111,-0.0014,-0.0,0.0057,0.0064,0.0055,0.0059,0.0211,0.0213,0.0215,0.0163,0,0,0,0,0,0,-0.0162,-0.0169,-0.0184,-0.0163,-0.0162,-0.0176,-0.0152,-0.0143,-0.0131,-0.0128,-0.0062,-0.0051,-0.0013,0.0049,0.0062,0.0071,0.0063,0.0209,0.0212,0.0214,0.0163,0.0163,0.0162,0,0,0,0,0,-0.016,-0.0194,-0.0185,-0.019,-0.0187,-0.0177,-0.017,-0.0145,-0.0131,-0.0126,-0.0069,-0.0053,0.0074,0.0054,0.0069,0.0079,0.0208,0.0211,0.0214,0.0163,0.0163,0.0162,0,0,0,0,0,0,-0.0174,-0.0192,-0.0182,-0.022,-0.0202,-0.0172,-0.0177,-0.0149,-0.0099,-0.0097,-0.0036,-0.002,0.0034,0.0069,0.0046,0.0137,0.0144,0.0149,0.01,0.01,0.01,0.0073,0.0067,0,0,0,0,0,-0.0186,-0.0215,-0.0207,-0.0233,-0.0237,-0.0201,-0.0193,-0.0173,-0.0135,-0.0114,-0.0064,-0.0003,0.006,0.0087,0.0142,0.0189,0.0199,0.0208,0.0207,0.0207,0.0197,0.0221,0.0221,0.0225,0.0225,0.0225,0,0,-0.02,-0.0213,-0.0228,-0.0237,-0.0226,-0.0231,-0.0196,-0.0196,-0.0174,-0.0109,-0.0063,-0.0003,0.0074,0.013,0.0156,0.0156,0.0212,0.0211,0.0209,0.02,0.0224,0.0223,0.0222,0.0227,0.0227,0.0226,0,0,-0.0248,-0.0255,-0.0296,-0.0284,-0.0281,-0.0258,-0.0262,-0.023,-0.0193,-0.0141,-0.0081,-0.0019,0.0067,0.0126,0.0168,0.0203,0.0212,0.0223,0.0196,0.0219,0.0218,0.0217,0.0219,0.0219,0.0219,0.0219,0.0219,0,-0.0261,-0.0311,-0.0299,-0.0323,-0.0322,-0.0277,-0.0298,-0.0249,-0.019,-0.0155,-0.0138,0.0005,0.0066,0.0147,0.0164,0.0199,0.0204,0.0184,0.0214,0.0214,0.0214,0.0217,0.0217,0.0217,0.0217,0.0217,0.0218,0,-0.0329,-0.036,-0.0384,-0.04,-0.0387,-0.0401,-0.0347,-0.0308,-0.026,-0.0206,-0.0119,-0.0027,0.0051,0.0091,0.0141,0.0185,0.0185,0.0208,0.0202,0.0209,0.0213,0.0214,0.0214,0.0215,0.0215,0.0216,0,0,-0.0388,-0.0429,-0.0434,-0.0454,-0.043,-0.0432,-0.0386,-0.0336,-0.0308,-0.0221,-0.0181,-0.0049,-0.0005,0.0047,0.0118,0.0151,0.0161,0.0173,0.0175,0.0151,0.019,0.0278,0.0288,0.0181,0.0181,0.0181,0.0188,0,-0.0446,-0.052,-0.0508,-0.0548,-0.0583,-0.0512,-0.0474,-0.0406,-0.0337,-0.0281,-0.0163,-0.0101,-0.0018,0.0011,0.0062,0.0138,0.0164,0.0156,0.0207,0.0208,0.0267,0.0293,0.0337,0.0355,0.0189,0.0189,0.0189,0,-0.0521,-0.056,-0.0627,-0.0635,-0.064,-0.0635,-0.0576,-0.0536,-0.0423,-0.0367,-0.0279,-0.0195,-0.0103,-0.0053,0.0067,0.0054,0.0114,0.0168,0.017,0.027,0.03,0.0327,0.0364,0.0508,0.0191,0.0191,0.0191,0,-0.0591,-0.064,-0.0701,-0.0704,-0.0698,-0.0685,-0.066,-0.0564,-0.0528,-0.0433,-0.041,-0.0282,-0.0227,-0.0131,0.0025,0.0026,0.0138,0.015,0.0284,0.0289,0.0348,0.036,0.0513,0.0212,0.0212,0.0212,0.0212,0,-0.0674,-0.0718,-0.0741,-0.0772,-0.0804,-0.0766,-0.0765,-0.0703,-0.0635,-0.0605,-0.0473,-0.0424,-0.0246,-0.0136,-0.0019,0.0153,0.0107,0.0281,0.0306,0.0335,0.0344,0.0491,0.0542,0.0213,0.0213,0.0213,0.0213,0,-0.0754,-0.0776,-0.0838,-0.0849,-0.085,-0.0868,-0.0842,-0.083,-0.0761,-0.0725,-0.0704,-0.0541,-0.0385,-0.0196,-0.003,0.0105,0.0342,0.0314,0.0337,0.0367,0.0631,0.0676,0.0826,0.0902,0.0439,0.0441,0.0443,0,-0.0808,-0.0856,-0.0896,-0.0921,-0.0931,-0.0948,-0.0946,-0.0893,-0.0875,-0.0785,-0.077,-0.0612,-0.0459,-0.0163,0.0097,0.0326,0.043,0.0494,0.0526,0.0666,0.0732,0.0753,0.0806,0.0566,0.0569,0.0571,0.0573,0,-0.0889,-0.0899,-0.0943,-0.0996,-0.1019,-0.1046,-0.1041,-0.1045,-0.0977,-0.0933,-0.0832,-0.0713,-0.0386,-0.0053,0.0279,0.041,0.0613,0.055,0.0688,0.0851,0.0887,0.0965,0.0523,0.0594,0.0592,0.059,0.0589,0.0588,-0.0924,-0.0969,-0.1015,-0.106,-0.1092,-0.1117,-0.1121,-0.1096,-0.1069,-0.0954,-0.0856,-0.0625,-0.0155,0.0342,0.0502,0.0863,0.0795,0.096,0.0997,0.1001,0.1111,0.0721,0.0838,0.0838,0.0837,0.0837,0.0836,0,-0.0961,-0.1009,-0.1064,-0.1118,-0.1155,-0.1154,-0.1158,-0.1128,-0.1076,-0.0926,-0.0778,-0.0255,0.0213,0.0618,0.1136,0.1314,0.132,0.1376,0.1405,0.1433,0.1086,0.1133,0.1329,0.1329,0.1328,0.1328,0.1328,0.1328,-0.0981,-0.1049,-0.1083,-0.1152,-0.1181,-0.12,-0.1193,-0.1124,-0.1003,-0.0718,-0.0421,-0.0168,0.0398,0.124,0.1695,0.1712,0.1835,0.1805,0.1871,0.163,0.1593,0.1558,0.1618,0.1912,0.1912,0.2203,0.2206,0.2208]}],[{"header":{"parameterUnit":"m.s-1","parameterCategory":2,"la1":30.2991,"la2":30.254,"lo1":-89.0895,"lo2":-89.0444,"dy":0.0017,"dx":0.0017,"nx":28,"ny":28,"refTime":"2024-05-29T03:00:00:Z","depth":"2","parameterNumber":2,"parameterNumberName":"U-component_of_CURRENTS"},"data":[0,0,0,0,0,0,0,0,0,0,0,0,0,0,0,0,0,0,0,0,0,0,0,0,0,0,0,0,0,0,0,0,0,0,0,0,0,0,0,0,0,0,0,0,0,0,0,0,0,0,0,0,0,0,0,0,0,0,-0.2096,-0.2098,0,-0.2175,-0.2175,-0.2175,-0.2177,-0.2176,-0.2176,-0.2176,-0.2224,-0.2225,-0.2227,0,0,0,0,0,0,0,0,0,0,0,0,0,-0.1934,-0.1937,-0.2096,-0.2098,-0.21,-0.2175,-0.2175,-0.2175,-0.2177,-0.2176,-0.2176,-0.2176,-0.2223,-0.2225,-0.2227,0,0,0,0,0,0,0,0,0,0,0,0,0,-0.2001,-0.1937,-0.2096,-0.2115,-0.2118,-0.2175,-0.2175,-0.2175,-0.2177,-0.2176,-0.2176,-0.2176,-0.2223,-0.2225,-0.2227,-0.225,0,0,-0.2234,-0.2235,0,0,0,0,0,0,0,0,-0.1997,-0.2006,-0.211,-0.2114,-0.2117,-0.2172,-0.2136,-0.2201,-0.2177,-0.2146,-0.2176,-0.2175,-0.2209,-0.2212,-0.2218,-0.2252,-0.2254,-0.2235,-0.2236,-0.2237,-0.2238,0,0,0,0,0,0,0,-0.1992,-0.2002,-0.2119,-0.2112,-0.2117,-0.2116,-0.2124,-0.2148,-0.2173,-0.2149,-0.2151,-0.2172,-0.221,-0.2215,-0.2219,-0.2255,-0.2234,-0.2237,-0.2238,-0.2239,-0.2308,-0.2309,0,0,0,0,0,0,-0.2,-0.1998,-0.2117,-0.2123,-0.2063,-0.2119,-0.2128,-0.2149,-0.2173,-0.2179,-0.2173,-0.2172,-0.2212,-0.2216,-0.2221,-0.2285,-0.2237,-0.2239,-0.224,-0.2308,-0.2308,-0.2309,0,0,0,0,0,0,-0.1996,-0.2009,-0.2114,-0.2068,-0.2082,-0.2124,-0.2146,-0.2151,-0.2177,-0.2193,-0.2196,-0.2197,-0.2212,-0.2217,-0.2256,-0.2286,-0.224,-0.2242,-0.2307,-0.2308,-0.2309,-0.2392,0,0,0,0,0,0,-0.1991,-0.2007,-0.2021,-0.2069,-0.2085,-0.2163,-0.2148,-0.2153,-0.2193,-0.2193,-0.2215,-0.2217,-0.2212,-0.2253,-0.2258,-0.2288,-0.2244,-0.2307,-0.2308,-0.2309,-0.2389,-0.2395,-0.2401,0,0,0,0,0,-0.1984,-0.2012,-0.2021,-0.2036,-0.2104,-0.2165,-0.2173,-0.2195,-0.2195,-0.2214,-0.2225,-0.2218,-0.2261,-0.2256,-0.2262,-0.2293,-0.2306,-0.2307,-0.2308,-0.2386,-0.2394,-0.2401,0,0,0,0,0,0,-0.1956,-0.2018,-0.2027,-0.2074,-0.2122,-0.2169,-0.2194,-0.2211,-0.2235,-0.2239,-0.2239,-0.2243,-0.2278,-0.2274,-0.2268,-0.231,-0.2277,-0.228,-0.2334,-0.2341,-0.2348,-0.2341,-0.2246,0,0,0,0,0,-0.1956,-0.1988,-0.2049,-0.2087,-0.2115,-0.2157,-0.2184,-0.2208,-0.2241,-0.2251,-0.2262,-0.227,-0.2285,-0.2306,-0.2308,-0.2352,-0.2332,-0.2368,-0.2375,-0.238,-0.2376,-0.2359,-0.2364,-0.2312,-0.2312,-0.2312,0,0,-0.1958,-0.1996,-0.2015,-0.2083,-0.2119,-0.2174,-0.2171,-0.223,-0.2269,-0.2254,-0.2296,-0.2294,-0.2297,-0.2331,-0.2347,-0.2339,-0.239,-0.2381,-0.2387,-0.2379,-0.2361,-0.2366,-0.237,-0.2313,-0.2313,-0.2313,0,0,-0.1986,-0.2012,-0.2052,-0.2096,-0.2167,-0.2196,-0.2221,-0.2278,-0.2293,-0.2339,-0.233,-0.2351,-0.2374,-0.2385,-0.2393,-0.2439,-0.2415,-0.2436,-0.2483,-0.2467,-0.2471,-0.2475,-0.2485,-0.2489,-0.2451,-0.2451,-0.2451,0,-0.1983,-0.205,-0.2074,-0.213,-0.2176,-0.2213,-0.2275,-0.2302,-0.2358,-0.2369,-0.2358,-0.2375,-0.2397,-0.2433,-0.2456,-0.2457,-0.2443,-0.2461,-0.2477,-0.2479,-0.2481,-0.2491,-0.2494,-0.2455,-0.2455,-0.2455,-0.2454,0,-0.2042,-0.2104,-0.2137,-0.2213,-0.2255,-0.2323,-0.2369,-0.2401,-0.2417,-0.243,-0.245,-0.2457,-0.2471,-0.2481,-0.2496,-0.2525,-0.2511,-0.248,-0.2462,-0.2492,-0.25,-0.2501,-0.2461,-0.246,-0.2459,-0.2458,0,0,-0.2018,-0.2154,-0.2165,-0.221,-0.2312,-0.2342,-0.2414,-0.2473,-0.2503,-0.2511,-0.2536,-0.2562,-0.2549,-0.2556,-0.2563,-0.2561,-0.26,-0.2542,-0.2539,-0.2561,-0.258,-0.2478,-0.247,-0.2565,-0.2565,-0.2565,-0.2591,0,-0.2064,-0.2174,-0.2236,-0.233,-0.2389,-0.2444,-0.2501,-0.2544,-0.257,-0.2594,-0.258,-0.2597,-0.2583,-0.2598,-0.2598,-0.2595,-0.2601,-0.2596,-0.2539,-0.2538,-0.245,-0.2467,-0.2278,-0.2275,-0.2592,-0.2593,-0.2593,0,-0.2096,-0.2169,-0.2275,-0.2384,-0.2412,-0.2467,-0.2539,-0.2596,-0.2642,-0.2658,-0.2663,-0.2652,-0.2679,-0.2643,-0.2638,-0.2632,-0.2622,-0.2599,-0.2598,-0.2468,-0.2437,-0.2288,-0.2265,-0.2595,-0.2594,-0.2594,-0.2594,0,-0.2037,-0.2185,-0.2262,-0.2304,-0.2433,-0.2476,-0.2537,-0.2604,-0.2618,-0.2692,-0.2681,-0.2715,-0.2694,-0.2689,-0.2666,-0.2662,-0.2627,-0.2617,-0.2507,-0.2502,-0.2309,-0.2285,-0.2594,-0.2594,-0.2594,-0.2594,-0.2594,0,-0.2053,-0.2105,-0.2237,-0.2276,-0.2329,-0.244,-0.2487,-0.2555,-0.2622,-0.2609,-0.2693,-0.2655,-0.2692,-0.2672,-0.268,-0.2593,-0.2641,-0.2512,-0.2491,-0.2335,-0.2314,-0.2555,-0.255,-0.2595,-0.2595,-0.2595,-0.2594,0,-0.1963,-0.2076,-0.2135,-0.227,-0.2302,-0.2321,-0.2414,-0.2434,-0.2534,-0.2521,-0.2534,-0.2591,-0.2575,-0.26,-0.2597,-0.2565,-0.2535,-0.249,-0.2321,-0.2277,-0.2429,-0.2428,-0.239,-0.2387,-0.2383,-0.2381,-0.2379,0,-0.1928,-0.196,-0.2063,-0.2073,-0.2132,-0.2188,-0.2217,-0.2352,-0.2362,-0.2438,-0.2398,-0.2422,-0.2388,-0.2374,-0.2352,-0.2351,-0.2424,-0.2166,-0.2113,-0.242,-0.2404,-0.2408,-0.2411,-0.1917,-0.1912,-0.1907,-0.1903,0,-0.1821,-0.1852,-0.189,-0.1922,-0.1951,-0.1976,-0.2037,-0.204,-0.2173,-0.2176,-0.2181,-0.2183,-0.2167,-0.2073,-0.2077,-0.2045,-0.2164,-0.2066,-0.2413,-0.1987,-0.1972,-0.1957,-0.1976,-0.1861,-0.1865,-0.1868,-0.1871,-0.1872,-0.1692,-0.1676,-0.1727,-0.1736,-0.1765,-0.1776,-0.1754,-0.1819,-0.1828,-0.1839,-0.1924,-0.1879,-0.1906,-0.1797,-0.175,-0.1728,-0.1864,-0.1805,-0.1821,-0.1841,-0.177,-0.1748,-0.1586,-0.1588,-0.159,-0.1592,-0.1594,0,-0.1535,-0.1545,-0.1541,-0.1559,-0.1527,-0.1605,-0.1622,-0.1587,-0.1557,-0.1597,-0.1597,-0.1471,-0.1417,-0.1463,-0.1361,-0.1364,-0.1367,-0.1315,-0.1318,-0.1359,-0.1396,-0.1304,-0.0995,-0.0994,-0.0992,-0.0991,0,0,-0.1455,-0.1405,-0.1417,-0.133,-0.1335,-0.1263,-0.1249,-0.1223,-0.1229,-0.1189,-0.1174,-0.1295,-0.1373,-0.1165,-0.1139,-0.1046,-0.1186,-0.0995,-0.1468,-0.1506,-0.154,-0.1664,-0.1566,0,0,0,0,0]},{"header":{"parameterUnit":"m.s-1","parameterCategory":2,"la1":30.2991,"la2":30.254,"lo1":-89.0895,"lo2":-89.0444,"dy":0.0017,"dx":0.0017,"nx":28,"ny":28,"refTime":"2024-05-29T03:00:00:Z","depth":"2","parameterNumber":3,"parameterNumberName":"V-component_of_CURRENTS"},"data":[0,0,0,0,0,0,0,0,0,0,0,0,0,0,0,0,0,0,0,0,0,0,0,0,0,0,0,0,0,0,0,0,0,0,0,0,0,0,0,0,0,0,0,0,0,0,0,0,0,0,0,0,0,0,0,0,0,0,-0.0145,-0.0145,0,-0.0097,-0.0096,-0.0095,-0.0052,-0.0052,-0.0052,-0.0052,0.0075,0.0078,0.0081,0,0,0,0,0,0,0,0,0,0,0,0,0,-0.0088,-0.0089,-0.0145,-0.0145,-0.0144,-0.0097,-0.0096,-0.0094,-0.0052,-0.0052,-0.0052,-0.0052,0.0074,0.0078,0.0082,0,0,0,0,0,0,0,0,0,0,0,0,0,-0.0078,-0.009,-0.0145,-0.0122,-0.012,-0.0097,-0.0096,-0.0094,-0.0052,-0.0052,-0.0052,-0.0053,0.0072,0.0077,0.0082,0.0115,0,0,0.0098,0.01,0,0,0,0,0,0,0,0,-0.0079,-0.008,-0.0125,-0.0123,-0.0121,-0.0086,-0.0029,-0.0022,-0.0052,-0.0072,-0.0052,-0.0053,0.0025,0.0034,0.005,0.0121,0.0126,0.0098,0.0101,0.0104,0.0105,0,0,0,0,0,0,0,-0.008,-0.0081,-0.012,-0.0125,-0.0123,-0.0076,-0.0075,-0.0027,-0.0018,-0.007,-0.0068,-0.0072,0.0027,0.0045,0.0053,0.0128,0.0098,0.0103,0.0106,0.0108,0.0256,0.0257,0,0,0,0,0,0,-0.0103,-0.0082,-0.0121,-0.0119,-0.0106,-0.0078,-0.0077,-0.0092,-0.002,-0.0012,-0.0072,-0.0071,0.0036,0.0047,0.0058,0.0107,0.0104,0.0108,0.0111,0.0256,0.0257,0.0258,0,0,0,0,0,0,-0.0102,-0.0108,-0.0123,-0.0103,-0.0102,-0.008,-0.0097,-0.0091,-0.0076,-0.0024,-0.0012,-0.0064,0.0036,0.0051,0.0102,0.0112,0.0111,0.0115,0.0254,0.0256,0.0257,0.0201,0,0,0,0,0,0,-0.0101,-0.0108,-0.0122,-0.0105,-0.0105,-0.012,-0.0098,-0.0091,-0.0081,-0.0078,-0.0013,-0.0001,0.0038,0.0094,0.0107,0.0119,0.0119,0.0253,0.0255,0.0257,0.0202,0.0201,0.0199,0,0,0,0,0,-0.0099,-0.0128,-0.0123,-0.0128,-0.0128,-0.0121,-0.0116,-0.0095,-0.0081,-0.0079,-0.0029,-0.0003,0.0114,0.0099,0.0114,0.0127,0.0253,0.0255,0.0257,0.0203,0.0201,0.0199,0,0,0,0,0,0,-0.0112,-0.0127,-0.0121,-0.0153,-0.0141,-0.0117,-0.0122,-0.0098,-0.0057,-0.0054,0.0007,0.0022,0.0072,0.011,0.0092,0.0177,0.0189,0.0194,0.0143,0.0142,0.014,0.0122,0.0124,0,0,0,0,0,-0.0123,-0.0148,-0.0143,-0.0167,-0.017,-0.0142,-0.0136,-0.0121,-0.0088,-0.007,-0.0023,0.0035,0.0093,0.0122,0.0173,0.0219,0.0247,0.024,0.0238,0.0236,0.0234,0.0281,0.0282,0.0264,0.0264,0.0264,0,0,-0.0135,-0.0146,-0.016,-0.017,-0.0163,-0.0171,-0.0138,-0.014,-0.0124,-0.0061,-0.0025,0.003,0.0105,0.0154,0.0181,0.0186,0.0257,0.0239,0.0237,0.0235,0.0283,0.0284,0.0286,0.0265,0.0265,0.0265,0,0,-0.0176,-0.0184,-0.022,-0.0213,-0.0213,-0.0195,-0.0199,-0.0174,-0.0144,-0.0102,-0.0047,0.001,0.0089,0.0146,0.0187,0.0211,0.0247,0.0231,0.0211,0.0256,0.0257,0.0259,0.0289,0.0294,0.0231,0.0231,0.0231,0,-0.019,-0.0235,-0.0224,-0.0247,-0.0249,-0.0212,-0.0234,-0.0194,-0.0147,-0.0112,-0.0101,0.0034,0.0087,0.017,0.0177,0.0207,0.0232,0.0206,0.0251,0.0254,0.0256,0.0287,0.0293,0.0228,0.0229,0.0229,0.0229,0,-0.025,-0.0281,-0.0301,-0.032,-0.0311,-0.0327,-0.0282,-0.0251,-0.0211,-0.0162,-0.0078,0.0001,0.0079,0.0112,0.0152,0.0209,0.022,0.0239,0.0247,0.0254,0.0287,0.0294,0.0225,0.0226,0.0227,0.0227,0,0,-0.0306,-0.034,-0.0348,-0.0366,-0.0353,-0.0354,-0.0319,-0.0275,-0.0244,-0.0171,-0.0121,-0.0011,0.0034,0.0084,0.0148,0.0193,0.0228,0.0216,0.022,0.0231,0.0316,0.0363,0.0375,0.0251,0.0252,0.0253,0.0329,0,-0.0361,-0.0426,-0.0417,-0.0457,-0.0487,-0.0429,-0.0398,-0.0337,-0.0273,-0.0211,-0.0098,-0.0034,0.0026,0.0057,0.0116,0.0202,0.0246,0.0205,0.0322,0.0326,0.0353,0.0385,0.0338,0.0405,0.0336,0.0337,0.0338,0,-0.0432,-0.0463,-0.0525,-0.0529,-0.0534,-0.0535,-0.0479,-0.0447,-0.0333,-0.0277,-0.0182,-0.0098,0.0002,0.0035,0.0186,0.0155,0.0228,0.0292,0.0296,0.0364,0.0386,0.0391,0.0421,0.035,0.0349,0.0348,0.0348,0,-0.0495,-0.0538,-0.0591,-0.0595,-0.0589,-0.058,-0.0561,-0.0468,-0.043,-0.0326,-0.0287,-0.0149,-0.0086,0.0029,0.0183,0.0175,0.0338,0.0343,0.0457,0.046,0.0457,0.0459,0.0438,0.0438,0.0438,0.0438,0.0437,0,-0.0575,-0.0614,-0.0626,-0.0656,-0.0683,-0.0648,-0.0645,-0.0589,-0.0511,-0.0466,-0.0337,-0.0266,-0.0086,0.0045,0.0166,0.0345,0.033,0.0462,0.0491,0.0438,0.0437,0.042,0.0417,0.0441,0.044,0.0439,0.0439,0,-0.0654,-0.0669,-0.0723,-0.0727,-0.0726,-0.0744,-0.0716,-0.0699,-0.0622,-0.0562,-0.0533,-0.0354,-0.0184,0.0007,0.0202,0.0326,0.0484,0.0548,0.0473,0.0493,0.0572,0.0565,0.0668,0.067,0.0672,0.0674,0.0676,0,-0.0707,-0.0749,-0.078,-0.0802,-0.0812,-0.0825,-0.0823,-0.0762,-0.0732,-0.0603,-0.057,-0.0394,-0.0236,0.0079,0.0303,0.0532,0.0537,0.0629,0.0617,0.0582,0.0599,0.0589,0.058,0.0582,0.0582,0.0583,0.0583,0,-0.0789,-0.0799,-0.0836,-0.0882,-0.0902,-0.092,-0.0907,-0.0895,-0.0807,-0.0735,-0.0596,-0.0467,-0.016,0.0107,0.041,0.0532,0.0589,0.0647,0.0639,0.0539,0.051,0.0524,0.0516,0.0588,0.0587,0.0587,0.0587,0.0586,-0.083,-0.0873,-0.0912,-0.0952,-0.0978,-0.0989,-0.0988,-0.0947,-0.0892,-0.0748,-0.0623,-0.0406,-0.0148,0.0282,0.0481,0.0654,0.0658,0.0705,0.07,0.0695,0.0679,0.0656,0.0757,0.0758,0.0758,0.0759,0.0759,0,-0.0871,-0.0915,-0.0967,-0.1011,-0.1043,-0.1039,-0.1021,-0.0983,-0.0907,-0.0753,-0.0593,-0.0301,0.0007,0.0255,0.0539,0.0728,0.0684,0.0741,0.0653,0.0649,0.0645,0.0623,0.0688,0.0689,0.0689,0.0689,0,0,-0.0891,-0.0955,-0.0986,-0.1049,-0.1075,-0.1089,-0.1072,-0.0993,-0.0877,-0.0711,-0.0545,-0.0291,0.002,0.0218,0.0434,0.057,0.0552,0.0565,0.0603,0.0468,0.0462,0.0607,0.0567,0,0,0,0,0]}],[{"header":{"parameterUnit":"m.s-1","parameterCategory":2,"la1":30.2991,"la2":30.254,"lo1":-89.0895,"lo2":-89.0444,"dy":0.0017,"dx":0.0017,"nx":28,"ny":28,"refTime":"2024-05-29T03:00:00:Z","depth":"4","parameterNumber":2,"parameterNumberName":"U-component_of_CURRENTS"},"data":[0,0,0,0,0,0,0,0,0,0,0,0,0,0,0,0,0,0,0,0,0,0,0,0,0,0,0,0,0,0,0,0,0,0,0,0,0,0,0,0,0,0,0,0,0,0,0,0,0,0,0,0,0,0,0,0,0,0,-0.13,-0.1299,0,-0.1252,-0.1251,-0.1251,-0.124,-0.124,-0.124,-0.124,-0.1095,-0.1091,-0.1087,0,0,0,0,0,0,0,0,0,0,0,0,0,-0.1263,-0.1265,-0.13,-0.1299,-0.1298,-0.1252,-0.1251,-0.1251,-0.124,-0.124,-0.124,-0.1241,-0.1096,-0.1091,-0.1086,0,0,0,0,0,0,0,0,0,0,0,0,0,-0.1255,-0.1265,-0.13,-0.1286,-0.1285,-0.1252,-0.1251,-0.1251,-0.124,-0.124,-0.124,-0.1241,-0.1098,-0.1092,-0.1086,-0.1041,0,0,-0.1067,-0.1064,0,0,0,0,0,0,0,0,-0.1255,-0.1256,-0.1289,-0.1287,-0.1285,-0.1251,-0.1185,-0.1175,-0.124,-0.1258,-0.124,-0.1241,-0.1137,-0.1128,-0.1121,-0.1034,-0.1028,-0.1066,-0.1063,-0.106,-0.1058,0,0,0,0,0,0,0,-0.1256,-0.1258,-0.1282,-0.1288,-0.1286,-0.1242,-0.1242,-0.1183,-0.1195,-0.1256,-0.1255,-0.1248,-0.1135,-0.1127,-0.1117,-0.1026,-0.1067,-0.1061,-0.1057,-0.1055,-0.0989,-0.0991,0,0,0,0,0,0,-0.1266,-0.1259,-0.1284,-0.128,-0.1269,-0.1243,-0.1243,-0.1263,-0.1198,-0.1189,-0.1248,-0.1248,-0.1137,-0.1124,-0.1112,-0.1118,-0.106,-0.1054,-0.1051,-0.0987,-0.0989,-0.0991,0,0,0,0,0,0,-0.1266,-0.127,-0.1285,-0.1266,-0.1265,-0.1244,-0.1265,-0.1262,-0.1267,-0.1192,-0.1182,-0.1258,-0.1137,-0.112,-0.1092,-0.111,-0.1052,-0.1046,-0.0985,-0.0988,-0.099,-0.109,0,0,0,0,0,0,-0.1266,-0.1271,-0.1296,-0.1268,-0.1266,-0.1274,-0.1265,-0.126,-0.126,-0.126,-0.1197,-0.1183,-0.1136,-0.1102,-0.1086,-0.11,-0.1041,-0.0982,-0.0986,-0.0989,-0.1084,-0.1095,-0.1105,0,0,0,0,0,-0.1265,-0.1278,-0.1299,-0.1301,-0.1301,-0.1274,-0.127,-0.1255,-0.1261,-0.1262,-0.1239,-0.1186,-0.1114,-0.1098,-0.1079,-0.1092,-0.098,-0.0985,-0.0989,-0.1079,-0.1093,-0.1105,0,0,0,0,0,0,-0.1267,-0.1278,-0.1299,-0.1317,-0.1308,-0.1272,-0.1266,-0.1266,-0.125,-0.1252,-0.1196,-0.1181,-0.1164,-0.112,-0.1104,-0.1089,-0.1043,-0.1044,-0.1118,-0.113,-0.1141,-0.1159,-0.1036,0,0,0,0,0,-0.1286,-0.1312,-0.1304,-0.1323,-0.1317,-0.1302,-0.1294,-0.1287,-0.1263,-0.1259,-0.123,-0.1198,-0.1165,-0.1143,-0.1104,-0.1083,-0.106,-0.1087,-0.1098,-0.1107,-0.1112,-0.1121,-0.1132,-0.1005,-0.1005,-0.1005,0,0,-0.1296,-0.1303,-0.1321,-0.1327,-0.1317,-0.1314,-0.1298,-0.1286,-0.1297,-0.124,-0.1254,-0.1226,-0.1169,-0.1159,-0.1147,-0.1123,-0.1132,-0.1112,-0.112,-0.1121,-0.1126,-0.1138,-0.1149,-0.1008,-0.1008,-0.1007,0,0,-0.1295,-0.1332,-0.134,-0.1336,-0.1327,-0.1324,-0.1329,-0.1316,-0.1325,-0.1327,-0.1302,-0.1295,-0.1244,-0.1221,-0.1195,-0.1239,-0.1189,-0.1234,-0.1295,-0.1304,-0.1314,-0.1323,-0.1312,-0.1319,-0.124,-0.124,-0.124,0,-0.1307,-0.1328,-0.1334,-0.1328,-0.1334,-0.1336,-0.1339,-0.1342,-0.1334,-0.1349,-0.1344,-0.1324,-0.1272,-0.1264,-0.1291,-0.126,-0.1259,-0.1247,-0.1318,-0.1326,-0.1333,-0.1319,-0.1326,-0.1246,-0.1245,-0.1244,-0.1244,0,-0.1298,-0.1324,-0.1319,-0.1339,-0.1344,-0.1345,-0.1353,-0.1379,-0.1402,-0.141,-0.143,-0.1393,-0.1383,-0.1374,-0.134,-0.1373,-0.1354,-0.133,-0.1284,-0.1352,-0.1333,-0.1338,-0.1253,-0.1251,-0.125,-0.1248,0,0,-0.1306,-0.1318,-0.1323,-0.1338,-0.1356,-0.1356,-0.1392,-0.1422,-0.1455,-0.1472,-0.1511,-0.1486,-0.1493,-0.1468,-0.144,-0.1452,-0.1496,-0.1428,-0.1426,-0.1414,-0.1518,-0.1449,-0.1446,-0.1499,-0.15,-0.1501,-0.1485,0,-0.1305,-0.1312,-0.1323,-0.135,-0.1355,-0.1387,-0.1426,-0.1458,-0.1489,-0.1529,-0.1525,-0.1539,-0.1519,-0.1525,-0.154,-0.1505,-0.1515,-0.1503,-0.1455,-0.1453,-0.1381,-0.1451,-0.1506,-0.1488,-0.1489,-0.1489,-0.149,0,-0.1293,-0.1304,-0.133,-0.1374,-0.1382,-0.1414,-0.149,-0.1517,-0.157,-0.1595,-0.1628,-0.162,-0.164,-0.1612,-0.1613,-0.1616,-0.1582,-0.1555,-0.1553,-0.1455,-0.1393,-0.1405,-0.1498,-0.1497,-0.1497,-0.1496,-0.1496,0,-0.1293,-0.1313,-0.1348,-0.1358,-0.1404,-0.1447,-0.1491,-0.1551,-0.1586,-0.1644,-0.168,-0.1696,-0.1722,-0.1697,-0.1662,-0.1644,-0.1659,-0.1609,-0.1512,-0.1505,-0.1526,-0.1516,-0.161,-0.161,-0.161,-0.161,-0.161,0,-0.1282,-0.1305,-0.1358,-0.1373,-0.1427,-0.1464,-0.1536,-0.1579,-0.1647,-0.1679,-0.1723,-0.1746,-0.1755,-0.1759,-0.1697,-0.1636,-0.1688,-0.1535,-0.1506,-0.1568,-0.1563,-0.1529,-0.1519,-0.161,-0.161,-0.161,-0.161,0,-0.125,-0.1294,-0.1324,-0.1394,-0.1426,-0.1464,-0.156,-0.1593,-0.1683,-0.1727,-0.1749,-0.1814,-0.1814,-0.1802,-0.1762,-0.1685,-0.1614,-0.1575,-0.1656,-0.1629,-0.1436,-0.1433,-0.1441,-0.1439,-0.1437,-0.1435,-0.1434,0,-0.1219,-0.1237,-0.1327,-0.1352,-0.1387,-0.1457,-0.1502,-0.16,-0.1626,-0.1739,-0.174,-0.1804,-0.1818,-0.1717,-0.1715,-0.1615,-0.1582,-0.1541,-0.1476,-0.1453,-0.1424,-0.1424,-0.1423,-0.1431,-0.143,-0.1429,-0.1429,0,-0.1141,-0.1198,-0.1222,-0.1289,-0.1345,-0.1391,-0.1461,-0.149,-0.1585,-0.1682,-0.168,-0.1666,-0.1684,-0.1645,-0.1617,-0.153,-0.1562,-0.1519,-0.1521,-0.1458,-0.144,-0.1413,-0.1415,-0.1422,-0.1423,-0.1424,-0.1424,0,-0.1074,-0.108,-0.1138,-0.1179,-0.1251,-0.1289,-0.1354,-0.1382,-0.1435,-0.1555,-0.1549,-0.1602,-0.167,-0.1602,-0.1555,-0.1499,-0.1437,-0.1353,-0.1362,-0.137,-0.1354,-0.1321,-0.1254,0,0,0,0,0,-0.0985,-0.0985,-0.1016,-0.1064,-0.1136,-0.1178,-0.129,-0.1355,-0.1471,-0.1423,-0.148,-0.1469,-0.1435,-0.1468,-0.1383,-0.1505,-0.1443,-0.14,-0.1353,-0.1383,-0.1391,-0.1379,0,0,0,0,0,0,-0.0926,-0.0948,-0.0969,-0.0953,-0.0965,-0.1031,-0.1105,-0.1191,-0.1178,-0.1296,-0.1285,-0.1355,-0.1344,-0.1439,-0.1339,-0.1344,-0.128,-0.1431,-0.1427,-0.1378,-0.1386,-0.1392,-0.1383,0,0,0,0,0]},{"header":{"parameterUnit":"m.s-1","parameterCategory":2,"la1":30.2991,"la2":30.254,"lo1":-89.0895,"lo2":-89.0444,"dy":0.0017,"dx":0.0017,"nx":28,"ny":28,"refTime":"2024-05-29T03:00:00:Z","depth":"4","parameterNumber":3,"parameterNumberName":"V-component_of_CURRENTS"},"data":[0,0,0,0,0,0,0,0,0,0,0,0,0,0,0,0,0,0,0,0,0,0,0,0,0,0,0,0,0,0,0,0,0,0,0,0,0,0,0,0,0,0,0,0,0,0,0,0,0,0,0,0,0,0,0,0,0,0,-0.0064,-0.0064,0,-0.0041,-0.0041,-0.004,-0.0016,-0.0016,-0.0016,-0.0016,0.0012,0.0013,0.0014,0,0,0,0,0,0,0,0,0,0,0,0,0,-0.0026,-0.0027,-0.0064,-0.0064,-0.0064,-0.0041,-0.004,-0.004,-0.0016,-0.0016,-0.0016,-0.0016,0.0012,0.0013,0.0014,0,0,0,0,0,0,0,0,0,0,0,0,0,-0.0025,-0.0027,-0.0064,-0.0051,-0.005,-0.0041,-0.004,-0.004,-0.0016,-0.0016,-0.0016,-0.0016,0.0012,0.0013,0.0014,0.0015,0,0,0.0017,0.0017,0,0,0,0,0,0,0,0,-0.0025,-0.0026,-0.0053,-0.0052,-0.005,-0.0033,-0.0017,-0.0022,-0.0016,-0.0027,-0.0016,-0.0015,-0.0004,-0.0001,0.0005,0.0016,0.0017,0.0017,0.0017,0.0018,0.0018,0,0,0,0,0,0,0,-0.0025,-0.0027,-0.0053,-0.0053,-0.0051,-0.0025,-0.0025,-0.0017,-0.0015,-0.0026,-0.0025,-0.0025,-0.0003,0.0004,0.0006,0.0018,0.0017,0.0018,0.0018,0.0018,0.0046,0.0046,0,0,0,0,0,0,-0.0036,-0.0027,-0.0054,-0.0053,-0.0039,-0.0026,-0.0026,-0.0037,-0.0015,-0.0012,-0.0025,-0.0024,0.0003,0.0005,0.0007,0.0016,0.0018,0.0019,0.0019,0.0045,0.0046,0.0046,0,0,0,0,0,0,-0.0035,-0.0039,-0.0055,-0.004,-0.004,-0.0028,-0.004,-0.0037,-0.0029,-0.0015,-0.0012,-0.0021,0.0003,0.0006,0.0015,0.0017,0.0019,0.002,0.0045,0.0045,0.0046,0.003,0,0,0,0,0,0,-0.0035,-0.0039,-0.005,-0.0041,-0.0042,-0.0056,-0.004,-0.0037,-0.003,-0.0028,-0.001,-0.0007,0.0003,0.0014,0.0016,0.0018,0.002,0.0045,0.0045,0.0046,0.003,0.003,0.0029,0,0,0,0,0,-0.0033,-0.0051,-0.0051,-0.0054,-0.0058,-0.0056,-0.0054,-0.0042,-0.0031,-0.0032,-0.0015,-0.0008,0.0018,0.0015,0.0017,0.002,0.0045,0.0045,0.0046,0.0031,0.003,0.0029,0,0,0,0,0,0,-0.0039,-0.005,-0.005,-0.007,-0.0066,-0.0053,-0.0056,-0.0043,-0.0029,-0.0026,-0.0008,-0.0004,0.0005,0.0015,0.0011,0.0029,0.0033,0.0034,0.0021,0.0021,0.002,0.0022,0.0021,0,0,0,0,0,-0.0048,-0.0065,-0.0064,-0.0081,-0.0081,-0.0067,-0.0064,-0.0055,-0.0043,-0.0036,-0.0025,-0.0008,0.0009,0.0016,0.0026,0.0035,0.0079,0.0039,0.0039,0.0038,0.0042,0.0116,0.0123,0.0047,0.0047,0.0047,0,0,-0.0056,-0.0063,-0.0074,-0.0083,-0.0079,-0.0088,-0.0064,-0.0064,-0.0063,-0.0036,-0.0034,-0.0013,0.001,0.002,0.0026,0.0029,0.0084,0.0039,0.0038,0.0043,0.0118,0.0125,0.0132,0.0047,0.0047,0.0047,0,0,-0.008,-0.0087,-0.0109,-0.011,-0.011,-0.0102,-0.0102,-0.0092,-0.0078,-0.0071,-0.0048,-0.0024,-0.0011,0.0013,0.0027,0.003,0.0077,0.0032,0.0033,0.0105,0.0112,0.0119,0.0191,0.0205,0.0034,0.0034,0.0034,0,-0.009,-0.0121,-0.0113,-0.0131,-0.0136,-0.0111,-0.0128,-0.0111,-0.0096,-0.0079,-0.0076,-0.0022,-0.0013,0.0027,0.0025,0.0028,0.0082,0.0032,0.0106,0.0113,0.0121,0.0193,0.0208,0.0034,0.0034,0.0034,0.0034,0,-0.0129,-0.0153,-0.0164,-0.0184,-0.0182,-0.0194,-0.0173,-0.0162,-0.0142,-0.0116,-0.0074,-0.0043,-0.0007,0.0,0.001,0.0067,0.0093,0.0095,0.0109,0.0128,0.0203,0.0219,0.0033,0.0033,0.0033,0.0033,0,0,-0.0166,-0.0189,-0.0198,-0.021,-0.0212,-0.0214,-0.0207,-0.0186,-0.0163,-0.0131,-0.0087,-0.0058,-0.002,-0.0001,0.0029,0.0088,0.0177,0.0111,0.0116,0.0186,0.0352,0.0286,0.0298,0.0202,0.0204,0.0206,0.0386,0,-0.0206,-0.025,-0.0248,-0.0282,-0.0301,-0.0273,-0.0266,-0.0234,-0.0193,-0.0142,-0.0074,-0.0031,-0.0024,0.0003,0.0064,0.0149,0.0218,0.0129,0.032,0.0326,0.0267,0.0313,0.0214,0.0398,0.0402,0.0404,0.0406,0,-0.0257,-0.0277,-0.0324,-0.0327,-0.0331,-0.0341,-0.031,-0.0299,-0.0214,-0.0173,-0.01,-0.0037,0.0052,0.0057,0.0226,0.0174,0.0259,0.0328,0.0337,0.0291,0.0289,0.0374,0.0436,0.0434,0.0431,0.0429,0.0428,0,-0.0301,-0.0332,-0.0371,-0.0378,-0.0377,-0.0379,-0.0371,-0.0311,-0.0286,-0.0185,-0.0139,-0.0017,0.0044,0.0175,0.029,0.0279,0.0486,0.0489,0.0519,0.0516,0.0529,0.0519,0.0621,0.0621,0.0621,0.062,0.062,0,-0.0358,-0.0388,-0.0395,-0.0421,-0.0444,-0.0421,-0.0421,-0.0385,-0.0312,-0.0264,-0.0162,-0.0087,0.0077,0.0207,0.0322,0.046,0.0513,0.0533,0.056,0.0518,0.0505,0.0541,0.053,0.0627,0.0626,0.0624,0.0623,0,-0.0415,-0.0426,-0.0468,-0.0474,-0.0477,-0.0495,-0.0477,-0.046,-0.0388,-0.0315,-0.028,-0.0121,0.0042,0.0199,0.0416,0.0479,0.063,0.0664,0.0613,0.0631,0.0616,0.0602,0.0746,0.0746,0.0745,0.0744,0.0744,0,-0.0449,-0.048,-0.0516,-0.054,-0.0552,-0.0566,-0.0572,-0.0515,-0.048,-0.0333,-0.0289,-0.0121,-0.0008,0.0262,0.0409,0.0633,0.0638,0.0722,0.0665,0.0619,0.0631,0.0617,0.0604,0.0743,0.0743,0.0743,0.0742,0,-0.0502,-0.0522,-0.0553,-0.0604,-0.0629,-0.0645,-0.0634,-0.0604,-0.051,-0.0449,-0.0274,-0.0116,0.006,0.0256,0.0406,0.0563,0.0674,0.0715,0.0718,0.0666,0.0617,0.0626,0.0614,0.074,0.074,0.0741,0.0741,0,-0.0532,-0.0567,-0.0609,-0.0649,-0.0689,-0.0691,-0.0681,-0.0607,-0.0556,-0.0376,-0.0321,-0.0109,0.0021,0.0221,0.0374,0.0501,0.0534,0.057,0.0581,0.0585,0.0455,0.0363,0.0448,0,0,0,0,0,-0.0547,-0.0588,-0.064,-0.0679,-0.072,-0.0735,-0.0702,-0.067,-0.0569,-0.0457,-0.0379,-0.0206,0.0043,0.0159,0.0278,0.0337,0.0532,0.0476,0.0573,0.0727,0.073,0.0594,0,0,0,0,0,0,-0.0556,-0.0615,-0.0644,-0.0692,-0.0723,-0.0752,-0.0732,-0.0665,-0.0581,-0.0463,-0.0332,-0.0216,0.0015,-0.0042,0.0263,0.0306,0.0377,0.0603,0.0605,0.0726,0.0728,0.073,0.0592,0,0,0,0,0]}]]